ENGINEERING TRACK TESTING
Weather & Rail Temperature Monitoring

Weather station HARTFORD

Hartford Passenger Station (Hartford CT)

Measurement History

Home Current History Weekly graphs

,

to download data from the start of , to the end of ,

Conditions for past 24 hours (since 09/01/2026 01:30 AM)

Time Track 1 E rail Track 1 E rail (B) Track 1 W rail Track 1 W rail (B) Outside Air
Temperature
Solar
Radiation
Max. Wind Humidity Air Pressure Rain
SpeedDir
09/02/2026 01:15 AM 64 °F 49 °F 64 °F 63 °F 63.4 °F 0 watt/m2 0 mph --- 96 % 30.207 in Hg 0 in
09/02/2026 01:00 AM 64 °F 48 °F 64 °F 63 °F 63.4 °F 0 watt/m2 0 mph --- 96 % 30.203 in Hg 0 in
09/02/2026 12:45 AM 63 °F 48 °F 64 °F 63 °F 63.2 °F 0 watt/m2 0 mph --- 96 % 30.198 in Hg 0 in
09/02/2026 12:30 AM 63 °F 48 °F 64 °F 63 °F 63 °F 0 watt/m2 0 mph --- 96 % 30.195 in Hg 0 in
09/02/2026 12:15 AM 63 °F 48 °F 64 °F 63 °F 63.3 °F 0 watt/m2 0 mph --- 96 % 30.204 in Hg 0 in
09/02/2026 12:00 AM 63 °F 48 °F 63 °F 63 °F 63.3 °F 0 watt/m2 0 mph --- 96 % 30.202 in Hg 0 in
09/01/2026 11:45 PM 63 °F 48 °F 63 °F 63 °F 63.3 °F 0 watt/m2 0 mph --- 96 % 30.199 in Hg 0 in
09/01/2026 11:30 PM 63 °F 48 °F 63 °F 63 °F 63.3 °F 0 watt/m2 0 mph --- 96 % 30.197 in Hg 0 in
09/01/2026 11:15 PM 63 °F 48 °F 63 °F 63 °F 63.3 °F 0 watt/m2 0 mph --- 96 % 30.178 in Hg 0 in
09/01/2026 11:00 PM 63 °F 48 °F 63 °F 63 °F 63.3 °F 0 watt/m2 0 mph --- 96 % 30.178 in Hg 0 in
09/01/2026 10:45 PM 63 °F 48 °F 63 °F 63 °F 63.4 °F 0 watt/m2 0 mph --- 96 % 30.175 in Hg 0 in
09/01/2026 10:30 PM 63 °F 48 °F 63 °F 63 °F 63.4 °F 0 watt/m2 0 mph --- 96 % 30.177 in Hg 0 in
09/01/2026 10:15 PM 63 °F 48 °F 64 °F 63 °F 63.5 °F 0 watt/m2 0 mph --- 96 % 30.18 in Hg 0 in
09/01/2026 10:00 PM 63 °F 48 °F 63 °F 63 °F 63.3 °F 0 watt/m2 0 mph --- 96 % 30.175 in Hg 0 in
09/01/2026 09:45 PM 63 °F 48 °F 63 °F 63 °F 63.4 °F 0 watt/m2 0 mph --- 96 % 30.174 in Hg 0 in
09/01/2026 09:30 PM 63 °F 48 °F 63 °F 63 °F 63.3 °F 0 watt/m2 0 mph --- 96 % 30.171 in Hg 0 in
09/01/2026 09:15 PM 63 °F 48 °F 63 °F 63 °F 63.4 °F 0 watt/m2 0 mph --- 96 % 30.167 in Hg 0 in
09/01/2026 09:00 PM 63 °F 48 °F 63 °F 63 °F 63.4 °F 0 watt/m2 0 mph --- 96 % 30.161 in Hg 0 in
09/01/2026 08:45 PM 63 °F 48 °F 63 °F 63 °F 63.3 °F 0 watt/m2 0 mph --- 96 % 30.161 in Hg 0 in
09/01/2026 08:30 PM 63 °F 48 °F 63 °F 63 °F 63 °F 0 watt/m2 0 mph --- 96 % 30.154 in Hg 0 in
09/01/2026 08:15 PM 63 °F 48 °F 63 °F 63 °F 62.8 °F 0 watt/m2 0 mph --- 96 % 30.145 in Hg 0 in
09/01/2026 08:00 PM 63 °F 48 °F 63 °F 63 °F 62.8 °F 0 watt/m2 0 mph --- 96 % 30.144 in Hg 0 in
09/01/2026 07:45 PM 63 °F 48 °F 64 °F 63 °F 63 °F 0 watt/m2 0 mph --- 96 % 30.154 in Hg 0 in
09/01/2026 07:30 PM 64 °F 48 °F 64 °F 63 °F 63 °F 0 watt/m2 0 mph --- 96 % 30.156 in Hg 0 in
09/01/2026 07:15 PM 64 °F 48 °F 64 °F 63 °F 62.8 °F 4 watt/m2 0 mph --- 96 % 30.146 in Hg 0.01 in
09/01/2026 07:00 PM 64 °F 49 °F 64 °F 63 °F 63 °F 13 watt/m2 0 mph --- 96 % 30.148 in Hg 0 in
09/01/2026 06:45 PM 64 °F 49 °F 64 °F 64 °F 63.4 °F 16 watt/m2 0 mph --- 96 % 30.147 in Hg 0 in
09/01/2026 06:30 PM 64 °F 49 °F 65 °F 64 °F 63.4 °F 12 watt/m2 0 mph --- 96 % 30.15 in Hg 0 in
09/01/2026 06:15 PM 65 °F 49 °F 65 °F 64 °F 63.5 °F 21 watt/m2 0 mph --- 96 % 30.142 in Hg 0 in
09/01/2026 06:00 PM 65 °F 50 °F 65 °F 64 °F 63.8 °F 22 watt/m2 0 mph --- 96 % 30.137 in Hg 0 in
09/01/2026 05:45 PM 65 °F 50 °F 65 °F 65 °F 63.9 °F 20 watt/m2 0 mph --- 96 % 30.137 in Hg 0.02 in
09/01/2026 05:30 PM 65 °F 50 °F 65 °F 65 °F 64.1 °F 18 watt/m2 0 mph --- 96 % 30.133 in Hg 0.03 in
09/01/2026 05:15 PM 66 °F 50 °F 66 °F 65 °F 64.3 °F 33 watt/m2 0 mph --- 96 % 30.13 in Hg 0.03 in
09/01/2026 05:00 PM 66 °F 51 °F 66 °F 66 °F 64.5 °F 43 watt/m2 0 mph --- 96 % 30.122 in Hg 0.04 in
09/01/2026 04:45 PM 66 °F 51 °F 66 °F 66 °F 64.8 °F 33 watt/m2 0 mph --- 96 % 30.117 in Hg 0.05 in
09/01/2026 04:30 PM 67 °F 51 °F 67 °F 66 °F 65 °F 38 watt/m2 0 mph --- 96 % 30.113 in Hg 0.06 in
09/01/2026 04:15 PM 67 °F 52 °F 67 °F 67 °F 65.2 °F 32 watt/m2 0 mph --- 96 % 30.106 in Hg 0.07 in
09/01/2026 04:00 PM 68 °F 52 °F 68 °F 67 °F 65.4 °F 66 watt/m2 0 mph --- 95 % 30.1 in Hg 0.08 in
09/01/2026 03:45 PM 68 °F 53 °F 68 °F 68 °F 66.1 °F 69 watt/m2 8 mph S 95 % 30.095 in Hg 0.09 in
09/01/2026 03:30 PM 69 °F 53 °F 69 °F 69 °F 66.8 °F 66 watt/m2 0 mph --- 96 % 30.088 in Hg 0.1 in
09/01/2026 03:15 PM 70 °F 54 °F 70 °F 69 °F 67.7 °F 51 watt/m2 0 mph --- 95 % 30.084 in Hg 0.1 in
09/01/2026 03:00 PM 71 °F 55 °F 71 °F 70 °F 69.2 °F 28 watt/m2 1 mph S 95 % 30.08 in Hg 0.07 in
09/01/2026 02:45 PM 71 °F 56 °F 71 °F 71 °F 71.1 °F 13 watt/m2 0 mph --- 96 % 30.066 in Hg 0.05 in
09/01/2026 02:30 PM 72 °F 56 °F 72 °F 71 °F 71.8 °F 14 watt/m2 0 mph --- 96 % 30.067 in Hg 0.02 in
09/01/2026 02:15 PM 72 °F 56 °F 72 °F 71 °F 71.8 °F 32 watt/m2 0 mph --- 96 % 30.068 in Hg 0.03 in
09/01/2026 02:00 PM 72 °F 56 °F 72 °F 71 °F 71.6 °F 38 watt/m2 0 mph --- 96 % 30.067 in Hg 0.03 in
09/01/2026 01:45 PM 72 °F 56 °F 72 °F 71 °F 71.5 °F 20 watt/m2 0 mph --- 96 % 30.072 in Hg 0.01 in
09/01/2026 01:30 PM 72 °F 56 °F 72 °F 72 °F 71.3 °F 36 watt/m2 0 mph --- 96 % 30.071 in Hg 0.01 in
09/01/2026 01:15 PM 72 °F 56 °F 72 °F 72 °F 71.2 °F 23 watt/m2 0 mph --- 96 % 30.076 in Hg 0 in
09/01/2026 01:00 PM 72 °F 56 °F 72 °F 72 °F 71.1 °F 45 watt/m2 0 mph --- 96 % 30.072 in Hg 0 in
09/01/2026 12:45 PM 72 °F 56 °F 72 °F 72 °F 71 °F 51 watt/m2 0 mph --- 96 % 30.071 in Hg 0 in
09/01/2026 12:30 PM 72 °F 56 °F 72 °F 71 °F 70.9 °F 44 watt/m2 0 mph --- 96 % 30.069 in Hg 0 in
09/01/2026 12:15 PM 72 °F 56 °F 72 °F 71 °F 70.9 °F 47 watt/m2 0 mph --- 96 % 30.076 in Hg 0 in
09/01/2026 12:00 PM 72 °F 56 °F 72 °F 71 °F 70.6 °F 64 watt/m2 0 mph --- 96 % 30.08 in Hg 0 in
09/01/2026 11:45 AM 71 °F 56 °F 71 °F 71 °F 70.6 °F 51 watt/m2 0 mph --- 96 % 30.078 in Hg 0 in
09/01/2026 11:30 AM 71 °F 56 °F 71 °F 71 °F 70.6 °F 38 watt/m2 0 mph --- 96 % 30.087 in Hg 0 in
09/01/2026 11:15 AM 72 °F 56 °F 72 °F 71 °F 70.8 °F 39 watt/m2 0 mph --- 96 % 30.092 in Hg 0 in
09/01/2026 11:00 AM 71 °F 56 °F 72 °F 71 °F 70.8 °F 63 watt/m2 0 mph --- 96 % 30.091 in Hg 0 in
09/01/2026 10:45 AM 71 °F 56 °F 71 °F 71 °F 70.6 °F 83 watt/m2 0 mph --- 96 % 30.093 in Hg 0 in
09/01/2026 10:30 AM 71 °F 55 °F 71 °F 71 °F 70.4 °F 93 watt/m2 0 mph --- 96 % 30.096 in Hg 0 in
09/01/2026 10:15 AM 70 °F 55 °F 71 °F 70 °F 70.1 °F 86 watt/m2 0 mph --- 96 % 30.099 in Hg 0 in
09/01/2026 10:00 AM 70 °F 54 °F 70 °F 70 °F 69.9 °F 63 watt/m2 0 mph --- 96 % 30.098 in Hg 0 in
09/01/2026 09:45 AM 70 °F 54 °F 70 °F 69 °F 69.6 °F 52 watt/m2 0 mph --- 95 % 30.101 in Hg 0 in
09/01/2026 09:30 AM 69 °F 54 °F 70 °F 69 °F 69.4 °F 45 watt/m2 0 mph --- 95 % 30.101 in Hg 0 in
09/01/2026 09:15 AM 69 °F 54 °F 69 °F 69 °F 69.4 °F 36 watt/m2 0 mph --- 95 % 30.098 in Hg 0.01 in
09/01/2026 09:00 AM 69 °F 54 °F 69 °F 69 °F 69.5 °F 24 watt/m2 0 mph --- 95 % 30.103 in Hg 0 in
09/01/2026 08:45 AM 69 °F 53 °F 69 °F 69 °F 69.4 °F 34 watt/m2 0 mph --- 95 % 30.105 in Hg 0.01 in
09/01/2026 08:30 AM 69 °F 53 °F 69 °F 69 °F 69.4 °F 25 watt/m2 0 mph --- 94 % 30.105 in Hg 0.02 in
09/01/2026 08:15 AM 69 °F 53 °F 69 °F 68 °F 69.8 °F 3 watt/m2 0 mph --- 94 % 30.114 in Hg 0.02 in
09/01/2026 08:00 AM 69 °F 53 °F 69 °F 68 °F 69.7 °F 13 watt/m2 0 mph --- 94 % 30.105 in Hg 0.05 in
09/01/2026 07:45 AM 69 °F 53 °F 69 °F 68 °F 69.7 °F 6 watt/m2 0 mph --- 94 % 30.098 in Hg 0.04 in
09/01/2026 07:30 AM 69 °F 53 °F 69 °F 68 °F 69.9 °F 0 watt/m2 1 mph S 93 % 30.107 in Hg 0.17 in
09/01/2026 07:15 AM 69 °F 53 °F 69 °F 69 °F 69.8 °F 0 watt/m2 0 mph --- 93 % 30.097 in Hg 0.05 in
09/01/2026 07:00 AM 69 °F 54 °F 69 °F 69 °F 69.8 °F 1 watt/m2 0 mph --- 92 % 30.091 in Hg 0.03 in
09/01/2026 06:45 AM 69 °F 54 °F 69 °F 69 °F 69.9 °F 0 watt/m2 0 mph --- 92 % 30.096 in Hg 0 in
09/01/2026 06:30 AM 70 °F 54 °F 70 °F 70 °F 70.1 °F 0 watt/m2 0 mph --- 91 % 30.097 in Hg 0.01 in
09/01/2026 06:15 AM 70 °F 55 °F 70 °F 70 °F 70.3 °F 0 watt/m2 0 mph --- 90 % 30.097 in Hg 0 in
09/01/2026 06:00 AM 71 °F 55 °F 71 °F 70 °F 70.5 °F 0 watt/m2 0 mph --- 90 % 30.095 in Hg 0 in
09/01/2026 05:45 AM 71 °F 55 °F 71 °F 70 °F 70.5 °F 0 watt/m2 0 mph --- 90 % 30.095 in Hg 0 in
09/01/2026 05:30 AM 71 °F 55 °F 71 °F 70 °F 70.4 °F 0 watt/m2 0 mph --- 89 % 30.098 in Hg 0 in
09/01/2026 05:15 AM 71 °F 55 °F 71 °F 70 °F 70.3 °F 0 watt/m2 0 mph --- 89 % 30.101 in Hg 0 in
09/01/2026 05:00 AM 71 °F 55 °F 71 °F 70 °F 70.3 °F 0 watt/m2 0 mph --- 89 % 30.104 in Hg 0 in
09/01/2026 04:45 AM 71 °F 55 °F 71 °F 71 °F 70.3 °F 0 watt/m2 0 mph --- 89 % 30.108 in Hg 0 in
09/01/2026 04:30 AM 71 °F 55 °F 71 °F 71 °F 70.3 °F 0 watt/m2 0 mph --- 88 % 30.111 in Hg 0 in
09/01/2026 04:15 AM 71 °F 55 °F 71 °F 71 °F 70.3 °F 0 watt/m2 0 mph --- 88 % 30.116 in Hg 0 in
09/01/2026 04:00 AM 71 °F 55 °F 71 °F 71 °F 70.2 °F 0 watt/m2 0 mph --- 89 % 30.119 in Hg 0 in
09/01/2026 03:45 AM 71 °F 55 °F 71 °F 71 °F 70.2 °F 0 watt/m2 0 mph --- 88 % 30.118 in Hg 0 in
09/01/2026 03:30 AM 71 °F 56 °F 71 °F 71 °F 70.2 °F 0 watt/m2 0 mph --- 88 % 30.122 in Hg 0 in
09/01/2026 03:15 AM 72 °F 56 °F 71 °F 71 °F 70.2 °F 0 watt/m2 0 mph --- 88 % 30.129 in Hg 0 in
09/01/2026 03:00 AM 72 °F 56 °F 72 °F 72 °F 70.3 °F 0 watt/m2 0 mph --- 88 % 30.125 in Hg 0 in
09/01/2026 02:45 AM 72 °F 56 °F 72 °F 72 °F 70.4 °F 0 watt/m2 0 mph --- 88 % 30.129 in Hg 0 in
09/01/2026 02:30 AM 72 °F 56 °F 72 °F 72 °F 70.6 °F 0 watt/m2 0 mph --- 87 % 30.133 in Hg 0 in
09/01/2026 02:15 AM 73 °F 57 °F 72 °F 72 °F 70.8 °F 0 watt/m2 0 mph --- 86 % 30.136 in Hg 0 in
09/01/2026 02:00 AM 72 °F 56 °F 72 °F 72 °F 70.8 °F 0 watt/m2 0 mph --- 86 % 30.138 in Hg 0 in
09/01/2026 01:45 AM 72 °F 56 °F 72 °F 72 °F 70.8 °F 0 watt/m2 0 mph --- 85 % 30.144 in Hg 0 in

Alarms Station information Line AS Subdivision NEWHAVEN